User: anonymous   Login
Location: Unspecified
(0.0000°N, 0.0000°E)
Time: 00:14:59
(UTC+00:00)
Language:

Meteosat 2 - Orbit

View from above orbital plane
View from above orbital plane
View from above satellite
View from above satellite

Ground track
Ground track

The orbit data is extracted from the following two-line orbital elements,

1 12544U 81057A   17328.23316927 -.00000058  00000-0  00000+0 0  9994
2 12544  14.8762 346.0249 0035694 297.7644 254.1866  0.98724261 93014
Epoch (UTC): 24 November 2017 05:35:45
Eccentricity: 0.0035694
inclination: 14.8762°
perigee height: 36073 km
apogee height: 36378 km
right ascension of ascending node: 346.0249°
argument of perigee: 297.7644°
revolutions per day: 0.98724261
mean anomaly at epoch: 254.1866°
orbit number at epoch: 9301

The dashed part of the orbit path shows where the satellite is in the earth's shadow,  

DLR